GFSGL_925_temp_210.txt.gz
Temp
23 24 23 24 23 23 23 23 24 24 24 24 24 24 25 23 24 24 24 24 24 24 23 23 23 23 23 23 23 22 21 21 20 21 21 20 20 20 20 19 21 20 20
24 23 23 23 23 23 23 23 23 24 24 24 24 24 24 24 24 24 24 24 24 24 24 23 23 23 23 23 22 22 22 22 21 20 20 19 19 19 19 19 20 19 19
23 23 23 23 23 23 23 23 23 23 23 23 23 24 24 24 24 24 24 24 23 23 23 23 23 23 23 23 23 22 22 22 22 21 20 18 19 19 18 18 18 18 18
23 23 23 23 23 23 23 23 23 23 23 23 23 23 23 23 23 23 23 23 23 23 23 23 23 23 23 23 23 23 23 22 21 20 20 19 18 18 18 18 17 17 17
23 23 23 23 24 23 23 23 23 23 23 23 23 23 23 23 23 23 23 23 23 23 23 23 23 23 23 23 23 23 23 22 21 20 19 19 18 18 18 18 17 16 17
23 24 24 23 23 23 23 23 23 23 23 23 23 23 23 23 24 24 24 23 23 24 24 24 23 23 23 23 23 23 23 22 21 20 19 19 19 18 18 17 17 16 16
24 24 24 24 24 23 24 23 23 23 24 23 24 23 23 24 24 24 24 23 24 23 24 23 24 23 23 23 23 23 23 23 22 23 21 21 20 21 20 17 17 17 17
24 24 24 24 24 24 24 24 24 24 24 24 24 23 23 23 21 22 22 22 22 22 22 22 22 22 23 22 23 22 23 23 23 23 22 23 23 23 22 23 19 17 17
24 25 25 25 25 25 25 25 25 24 23 22 22 21 21 20 20 19 20 21 20 21 21 21 21 21 22 22 21 21 22 22 23 23 23 23 22 22 22 19 18 17 16
25 25 25 25 25 25 26 25 24 24 23 21 21 21 20 20 19 19 19 19 18 17 17 17 18 18 19 20 20 20 19 21 22 22 22 23 23 21 19 20 19 17 17
23 23 25 25 25 25 24 24 23 21 21 21 20 20 20 20 19 19 19 18 16 15 14 15 17 17 17 18 19 19 19 21 21 21 21 21 21 21 20 19 19 18 17
23 23 23 24 24 24 24 22 21 21 20 20 20 19 19 18 18 18 17 15 13 12 12 13 14 16 17 18 18 19 19 19 19 19 19 19 19 20 21 19 19 19 18
22 22 23 23 23 23 22 20 18 20 20 19 19 19 18 18 17 17 15 13 13 12 12 12 13 14 16 17 18 18 18 19 19 18 18 19 19 19 19 18 18 18 18
21 19 19 19 19 20 20 19 19 19 19 19 18 18 18 18 17 17 16 14 14 14 13 13 13 14 15 16 17 18 18 18 18 18 19 20 19 18 18 18 18 18 18
19 19 21 17 16 18 19 20 20 20 21 20 19 18 18 17 16 16 15 14 13 13 13 13 13 13 15 16 16 17 17 17 18 18 17 18 20 18 18 18 18 18 17
17 16 17 18 15 14 17 18 18 19 19 19 19 19 18 18 17 17 16 15 14 13 13 12 13 14 14 15 15 16 16 17 17 17 17 17 17 18 18 18 18 17 16
19 16 17 18 17 15 15 17 17 17 18 19 19 19 19 18 18 17 17 16 15 14 12 12 13 13 13 13 14 15 15 16 16 16 17 17 17 17 17 17 17 17 16
18 19 19 20 19 18 17 17 18 18 18 18 19 19 19 18 18 18 17 17 16 14 13 12 12 12 12 13 13 13 14 14 15 15 15 15 16 16 16 16 16 16 16
16 16 17 18 20 18 18 17 17 18 18 18 18 19 19 19 18 18 17 16 15 15 13 12 12 12 12 12 12 13 13 13 13 14 14 14 14 14 15 15 15 15 15
17 17 16 16 17 19 18 17 17 18 18 18 18 19 19 18 19 19 18 17 16 16 15 14 14 13 12 12 13 13 13 13 13 13 13 13 14 14 14 14 14 14 13
16 17 17 17 19 18 17 17 19 18 18 18 19 20 19 18 19 19 19 18 17 17 16 16 15 14 14 13 13 13 13 13 13 13 13 13 13 13 13 13 13 13 13
18 18 18 19 18 17 18 19 19 19 19 19 20 20 19 18 19 18 19 19 18 17 17 17 16 16 15 15 14 14 13 13 13 13 13 13 13 13 13 13 13 13 12
18 18 18 18 18 19 19 19 19 19 19 20 20 19 19 19 19 19 19 20 19 19 18 18 17 17 17 16 16 15 15 14 14 14 14 14 14 13 13 13 13 13 13
18 19 19 18 19 19 19 19 19 20 20 20 20 21 20 20 20 21 21 20 20 20 19 19 19 18 18 17 17 16 16 16 15 15 14 14 14 14 14 13 13 13 13
18 18 19 20 19 19 19 19 20 20 21 21 21 21 21 21 21 21 21 21 21 21 21 20 19 19 18 18 17 17 16 16 16 15 15 15 14 14 14 14 13 13 13
17 18 20 20 20 20 20 20 21 21 21 21 21 21 21 21 20 20 20 20 20 20 20 19 19 18 18 18 18 18 17 17 16 16 15 15 15 14 14 14 13 13 13

GFSGL_925_temp_216.txt.gz
Temp
25 25 25 25 25 24 24 24 24 24 24 24 24 24 25 25 24 24 25 25 24 24 25 24 24 24 24 24 24 26 26 26 27 27 26 25 22 21 21 21 21 21 21
26 26 25 25 25 25 24 24 24 24 24 24 24 25 24 24 24 24 24 26 25 25 25 24 24 24 23 23 23 24 24 25 26 26 25 24 23 22 21 20 19 21 23
26 26 26 25 25 25 25 25 24 24 24 24 24 24 24 24 24 24 24 25 25 25 25 25 25 25 25 25 25 24 25 25 24 24 26 24 25 20 20 19 19 19 21
26 26 26 25 25 25 25 24 24 24 24 24 24 24 24 24 25 25 25 24 24 25 25 25 25 25 25 25 25 24 23 24 25 25 24 26 24 21 19 20 19 18 19
25 25 26 25 25 24 24 24 24 24 24 24 24 24 24 24 25 25 24 25 24 24 25 25 25 25 24 24 24 25 24 24 24 25 25 26 25 22 20 21 20 21 19
25 25 25 24 24 24 24 24 24 24 24 24 24 24 24 25 25 24 24 25 25 24 25 25 25 24 24 23 23 23 23 23 23 24 25 26 26 24 24 23 22 22 20
25 25 25 24 24 24 23 23 24 24 24 24 24 24 24 24 24 24 23 22 24 25 24 24 25 26 25 24 24 23 24 23 23 23 23 24 24 24 24 23 23 22 22
25 25 25 24 24 24 24 24 24 24 24 24 24 24 24 24 24 24 23 22 22 23 23 24 24 24 24 23 23 23 24 24 23 23 22 23 23 23 23 22 22 22 22
26 26 25 25 25 25 24 24 24 24 24 24 24 24 24 23 21 22 22 23 24 23 22 22 22 22 22 21 20 21 22 23 24 24 23 23 23 23 23 22 21 20 22
26 26 25 25 25 25 25 24 24 24 25 25 25 24 23 21 21 21 21 22 23 23 22 22 21 20 19 18 16 18 20 21 22 23 23 22 22 22 22 21 22 20 21
27 26 25 25 25 25 25 24 24 24 26 24 24 21 21 20 18 20 21 20 21 21 22 22 22 19 17 16 16 15 16 17 18 19 21 23 24 22 22 21 21 21 20
25 26 25 25 25 25 24 24 24 24 23 22 20 20 19 17 18 19 19 19 19 18 20 20 19 17 15 14 14 14 14 15 15 16 18 20 22 21 21 20 21 21 21
24 25 25 25 25 25 24 24 24 22 21 20 20 21 20 19 18 19 19 19 19 18 17 17 16 15 15 15 16 16 15 15 16 16 17 18 20 20 20 20 20 19 20
23 24 25 24 24 24 24 24 21 21 21 21 21 22 22 22 21 20 19 19 19 18 17 17 16 15 16 16 16 17 17 16 16 17 18 18 19 19 20 19 19 19 19
23 23 20 19 19 19 19 20 22 22 22 22 21 23 23 23 22 19 19 19 18 17 16 17 16 16 16 14 14 15 15 17 17 17 18 18 18 18 19 19 19 19 18
20 22 22 21 18 17 17 15 16 17 19 21 21 22 22 22 20 19 19 18 17 17 17 18 16 14 14 13 13 13 14 14 15 15 16 17 17 17 18 19 19 19 18
20 22 22 21 22 21 20 20 18 15 15 18 19 19 19 19 19 19 19 18 17 17 18 20 18 16 15 14 13 13 13 13 14 15 15 15 16 16 17 18 18 18 17
21 20 22 23 21 21 21 21 21 20 18 17 18 18 18 18 18 19 18 17 18 18 21 20 20 19 16 15 15 14 13 13 14 14 14 14 15 15 15 15 16 16 17
21 22 21 21 21 20 20 21 21 20 20 19 18 17 18 18 18 18 18 18 22 22 22 21 20 19 18 17 17 16 14 14 14 14 14 14 14 14 15 15 16 15 15
22 21 20 21 20 18 18 19 19 20 20 21 21 20 18 18 17 18 18 20 21 22 22 21 20 20 19 18 18 18 16 16 16 16 15 14 14 14 15 15 15 15 14
23 23 19 20 20 18 18 19 20 20 21 21 22 22 21 21 23 23 23 22 22 22 21 21 20 20 20 20 20 20 21 20 19 19 18 17 17 17 17 17 16 15 14
23 23 20 21 20 20 20 19 19 19 21 22 23 22 21 20 23 23 23 23 22 22 22 21 21 21 21 20 20 20 21 21 20 20 20 20 20 20 19 18 17 16 16
24 23 19 20 20 19 16 17 19 21 22 23 24 23 21 21 23 24 24 23 23 22 22 21 21 21 21 20 20 19 20 20 20 19 20 20 20 20 20 20 20 20 17
23 23 21 20 19 18 18 20 18 20 22 23 24 24 24 24 24 24 24 24 23 23 22 22 22 21 21 20 20 20 20 19 19 19 18 19 20 20 20 20 20 20 20
22 21 20 19 19 21 21 19 20 21 23 24 24 25 25 24 24 24 24 23 23 23 22 22 22 21 19 18 17 18 17 17 17 17 17 18 19 19 19 19 20 20 20
20 20 19 20 20 20 20 21 22 23 24 24 25 25 25 24 24 23 22 21 21 21 19 17 15 14 13 14 16 16 16 16 16 16 15 15 17 18 19 19 18 18 19

GFSGL_925_temp_219.txt.gz
Temp
28 28 27 25 26 25 26 25 25 26 26 26 26 25 25 26 25 25 25 25 25 25 25 26 25 25 25 25 25 25 26 27 27 28 27 27 25 23 24 23 23 23 23
28 28 27 27 26 26 26 26 25 25 25 25 25 25 25 25 26 25 24 25 25 26 26 26 26 26 25 25 25 25 24 25 23 25 26 26 25 24 23 23 23 23 24
28 28 28 27 27 27 25 26 26 25 25 25 25 24 25 25 25 25 25 26 26 26 26 26 26 26 26 26 26 26 26 26 25 24 24 25 25 24 22 21 21 21 22
28 28 28 27 27 27 27 26 26 25 25 25 24 24 24 25 26 26 26 26 26 26 26 26 26 26 26 25 25 25 25 25 26 25 25 26 25 24 22 23 22 21 22
27 27 28 27 26 26 26 26 25 25 25 24 24 24 25 25 26 26 26 26 26 26 26 26 26 26 26 25 24 25 25 25 26 25 25 26 26 24 23 24 23 24 23
27 27 26 26 26 26 25 25 24 24 24 24 25 25 24 26 27 26 26 26 26 26 25 25 25 26 26 25 25 25 24 24 24 24 26 27 27 26 25 24 25 24 24
27 27 26 26 26 25 25 24 24 24 25 25 25 25 25 25 26 25 25 25 25 25 25 24 24 27 27 26 24 24 24 24 23 23 23 24 25 25 25 24 23 23 23
27 27 27 26 26 25 25 25 25 24 24 25 25 25 25 25 25 25 24 23 24 24 24 25 25 25 24 24 23 23 23 24 23 23 23 23 23 24 24 23 23 23 23
27 27 27 26 26 26 25 25 25 25 25 25 25 25 25 24 24 23 23 23 25 25 25 24 23 23 22 22 21 21 22 22 23 24 24 23 23 23 23 23 22 23 22
28 27 27 26 26 26 25 25 25 25 25 25 25 25 25 24 21 21 22 24 25 25 25 24 24 23 22 21 19 18 19 20 21 22 22 23 23 23 23 23 22 22 23
28 28 27 26 26 26 26 25 25 25 26 25 26 26 23 22 22 21 21 22 23 24 24 25 23 21 19 18 18 16 16 17 16 17 19 21 22 23 23 22 22 22 22
26 26 27 26 26 27 26 25 25 25 25 26 26 24 23 20 19 21 21 21 21 21 22 23 21 19 18 17 17 17 16 15 16 17 18 20 22 23 24 23 21 21 21
24 25 26 26 26 26 26 26 26 25 27 26 25 24 25 21 19 19 20 20 21 20 20 19 18 18 18 18 18 17 17 16 16 16 18 20 21 22 21 20 20 20 20
24 25 25 26 25 25 26 26 26 27 26 26 25 25 25 23 22 18 19 20 20 20 19 20 19 19 18 17 17 17 17 17 17 17 17 17 18 19 19 19 19 19 19
24 24 24 22 21 20 20 20 25 25 25 25 26 26 25 24 24 23 22 22 22 20 20 21 21 20 19 18 16 16 15 15 15 16 16 17 18 18 19 19 19 19 19
24 24 25 23 20 20 19 19 18 20 20 22 23 23 23 24 23 22 21 20 20 19 20 22 22 20 19 17 16 15 15 14 14 15 15 16 16 17 18 19 18 19 19
24 24 25 23 25 25 22 20 19 19 20 20 20 21 21 22 21 21 20 19 19 19 20 23 22 21 20 17 17 17 15 15 14 15 15 15 15 15 16 17 18 18 18
24 23 23 25 24 25 25 23 23 21 20 18 18 19 20 20 20 20 19 19 18 19 21 23 23 22 21 19 18 18 17 16 15 14 15 15 15 15 16 16 16 16 16
24 25 25 25 25 25 22 23 23 23 22 21 19 18 19 19 18 19 18 18 22 24 24 24 23 22 22 21 19 19 18 17 17 17 17 17 17 16 16 16 16 15 15
24 24 24 25 25 23 22 22 23 23 22 23 21 20 17 17 17 17 17 19 22 24 24 23 23 22 22 21 21 20 19 20 19 20 18 18 18 18 18 18 18 17 16
25 25 23 24 24 23 22 21 21 22 23 23 22 22 20 18 20 21 22 22 23 24 23 23 23 22 22 21 22 22 23 23 22 22 22 21 21 21 20 19 19 19 18
25 26 25 24 24 22 21 21 21 21 21 21 22 22 21 21 23 24 24 24 24 24 24 23 22 23 23 22 22 22 22 23 22 22 22 22 22 22 22 22 22 20 20
25 26 26 26 25 23 22 22 22 21 21 21 22 21 21 21 22 24 25 25 24 24 24 23 23 23 23 22 22 21 22 22 21 21 21 21 22 21 22 22 22 22 22
25 26 27 26 24 22 21 22 21 21 21 22 22 21 22 23 24 24 25 25 25 25 24 23 23 23 22 22 21 20 20 20 19 20 19 20 21 21 21 21 22 22 22
24 26 26 25 23 21 21 20 19 19 20 20 21 23 24 25 25 25 25 25 25 24 24 23 21 20 19 18 18 18 18 18 17 17 17 18 19 19 20 20 20 19 20
24 25 25 22 22 20 19 19 18 19 19 21 24 24 24 25 25 25 25 25 24 22 21 18 16 15 16 16 17 16 16 16 16 16 16 16 17 17 18 18 18 17 17

GFSGL_925_temp_222.txt.gz
Temp
27 26 26 25 25 25 25 25 26 26 26 25 24 23 25 25 25 25 25 24 24 25 25 25 25 25 25 25 25 25 25 25 24 26 26 24 24 24 24 24 23 24 24
28 27 26 26 25 25 25 26 26 26 25 25 25 25 25 25 25 25 25 25 25 25 25 26 26 26 26 25 25 25 25 25 24 24 25 26 25 25 25 25 24 23 23
28 28 28 26 26 26 26 26 25 26 25 25 25 25 25 25 25 25 24 25 25 25 26 26 26 26 26 25 25 25 25 25 25 24 24 24 25 24 24 23 23 23 22
28 28 28 27 27 27 26 26 25 25 25 25 25 25 24 25 25 25 25 25 25 25 26 26 26 26 26 25 25 25 24 25 25 25 25 25 25 25 24 23 22 22 22
27 28 28 27 27 27 26 26 26 25 25 25 25 24 24 24 24 25 25 25 25 25 25 26 26 26 26 26 25 25 24 24 24 24 24 25 25 25 24 24 24 23 23
26 27 27 27 27 26 26 26 26 25 25 24 24 24 24 24 25 26 26 26 26 26 26 25 25 25 26 26 26 25 25 24 24 23 23 24 24 25 25 25 24 24 22
26 26 26 26 26 26 26 25 25 25 25 24 24 24 24 24 25 26 26 26 25 25 25 25 24 25 26 25 24 24 24 24 24 23 22 23 23 23 24 24 24 24 23
27 26 26 26 26 25 25 24 24 24 24 24 24 24 24 25 25 25 25 25 24 24 24 24 24 24 24 24 23 22 22 22 22 23 22 23 23 23 23 23 23 23 23
27 27 26 26 26 26 25 25 24 24 23 24 24 24 24 25 25 25 25 25 24 24 24 24 24 24 23 23 22 22 21 21 21 21 22 22 22 22 23 23 22 22 21
27 27 27 26 26 26 25 25 25 25 24 24 24 24 24 25 25 25 24 23 24 25 25 25 24 24 23 22 21 19 18 19 18 18 19 20 20 20 22 22 22 21 21
26 26 27 26 26 25 25 25 25 25 25 25 25 25 25 25 25 24 22 23 24 25 25 25 23 22 21 20 19 18 18 17 17 17 16 17 18 19 21 22 23 23 21
24 25 25 26 26 25 25 25 25 25 25 25 25 25 25 23 22 21 21 22 22 23 23 23 21 21 20 19 18 18 18 17 17 16 17 17 18 19 21 22 22 21 21
24 24 24 24 25 25 25 25 25 25 25 25 25 25 24 22 21 20 20 21 22 22 21 21 21 20 19 19 18 17 18 17 16 17 17 17 18 19 20 21 21 21 21
24 24 24 25 25 25 24 25 24 25 25 26 26 24 24 23 21 21 20 20 20 21 21 20 20 20 19 19 18 17 16 16 16 16 16 17 18 19 19 20 19 20 20
24 24 24 23 24 22 20 19 20 19 20 22 25 25 25 23 22 22 21 20 20 20 20 21 21 21 20 19 17 16 16 15 15 15 15 16 16 17 18 19 19 20 19
23 24 25 25 25 24 20 18 19 20 20 21 23 22 22 21 23 22 21 21 21 21 21 21 22 21 20 18 18 17 17 16 16 15 15 15 16 16 16 18 18 18 18
22 22 23 24 25 24 22 20 16 17 17 18 19 22 21 21 22 22 22 22 21 21 20 21 22 22 21 19 18 18 17 17 16 16 16 16 16 16 16 17 17 17 17
21 22 23 24 25 26 26 24 22 18 17 17 18 19 19 19 20 21 21 21 20 20 21 21 23 22 21 20 19 18 18 18 17 17 17 17 17 17 16 17 16 16 16
22 22 23 25 25 25 25 25 25 24 22 19 17 17 18 19 19 20 20 20 20 20 20 22 23 23 22 21 19 19 18 19 18 19 18 18 18 18 18 18 17 16 16
22 23 23 24 26 26 25 24 24 24 22 20 19 18 17 17 17 18 19 19 19 20 23 23 23 22 22 21 21 20 20 20 20 19 20 19 19 19 19 19 18 17 17
21 23 24 24 25 25 25 24 23 23 22 22 22 20 19 18 18 19 19 19 20 21 23 23 23 22 22 21 22 22 23 23 22 22 22 22 21 21 21 20 20 19 18
21 23 24 25 25 26 25 23 22 22 22 23 22 22 20 19 20 20 20 21 22 22 24 23 23 23 22 22 22 22 22 22 22 21 21 22 22 22 22 22 22 21 20
21 22 24 24 25 25 24 23 22 22 23 23 23 20 20 19 21 22 22 23 23 23 24 23 23 23 23 22 22 22 22 21 21 21 21 21 21 21 21 21 21 21 20
21 23 23 23 25 23 23 23 23 22 22 22 22 21 20 20 21 22 23 24 25 24 24 23 23 23 21 21 20 20 20 20 20 19 19 19 19 20 20 20 20 19 18
22 23 22 22 24 23 22 22 21 21 20 21 21 20 20 21 22 22 24 24 25 24 23 21 21 21 21 20 19 19 18 18 18 18 18 18 17 18 18 19 18 17 16
23 24 24 24 24 22 20 20 20 20 20 20 20 20 20 21 22 24 24 23 21 20 20 18 17 17 17 17 17 16 16 16 16 16 16 16 16 16 16 16 16 16 15